Valdosta, GA

2:29 PM EST on February 09, 2016 (GMT -0500)
Moody Air Force Base

Weather History for KVAD - October, 2011

Change the Weather History Date:

Saturday, October 15, 2011

  Actual Average Record
Temperature  
Mean Temperature 70 °F -  
Max Temperature 85 °F 77 °F 85 °F (2007)
Min Temperature 54 °F 57 °F 46 °F (2010)
Cooling Degree Days 4    
Growing Degree Days 20 (Base 50)    
Moisture  
Dew Point 52 °F    
Average Humidity 62    
Maximum Humidity 91    
Minimum Humidity 29    
Precipitation  
Precipitation 0.00 in - - ()
Sea Level Pressure  
Sea Level Pressure 30.06 in    
Wind  
Wind Speed 2 mph (NW)    
Max Wind Speed 9 mph    
Max Gust Speed -    
Visibility 10 miles    
Events      
Averages and records for this station are not official NWS values.
T = Trace of Precipitation, MM = Missing Value Source: NWS Daily Summary

Daily Weather History Graph

Daily Weather History Graph

Search for Another Location

Airport or City:

Trip Planner

Search our weather history database for the weather conditions in past years. The results will help you decide how hot, cold, wet, or windy it might be!

Date:

Astronomy

Oct. 15, 2011 Rise Set
Actual Time 7:35 AM EDT 7:01 PM EDT
Civil Twilight 7:10 AM EDT 7:25 PM EDT
Nautical Twilight 6:42 AM EDT 7:53 PM EDT
Astronomical Twilight 6:14 AM EDT 8:21 PM EDT
Moon 9:13 PM EDT (10/15) 10:42 AM EDT (10/15)
Length of Visible Light 12h 14m
Length of Day
11h 26m
Waning Gibbous, 89% of the Moon is Illuminated
Oct 15
Waning Gibbous
Oct 19
Last Quarter
Oct 26
New
Nov 2
First Quarter
Nov 10
Full

Hourly Weather History & Observations

Time (EDT) Temp. Dew Point Humidity Pressure Visibility Wind Dir Wind Speed Gust Speed Precip Events Conditions
12:55 AM 57.0 °F 53.6 °F 88% 30.02 in 10.0 mi Calm Calm - N/A   Clear
1:55 AM 56.3 °F 53.8 °F 91% 30.03 in 10.0 mi Calm Calm - N/A   Clear
2:55 AM 55.0 °F 52.5 °F 91% 30.03 in 10.0 mi Calm Calm - N/A   Clear
3:55 AM 55.6 °F 52.7 °F 90% 30.02 in 10.0 mi Calm Calm - N/A   Clear
4:55 AM 55.8 °F 52.0 °F 87% 30.03 in 10.0 mi Calm Calm - N/A   Clear
5:55 AM 54.0 °F 49.6 °F 85% 30.04 in 10.0 mi NW 5.8 mph - N/A   Clear
6:55 AM 55.2 °F 48.6 °F 78% 30.05 in 10.0 mi NW 4.6 mph - N/A   Clear
7:55 AM 54.9 °F 49.5 °F 82% 30.06 in 10.0 mi NNW 4.6 mph - N/A   Clear
8:55 AM 63.3 °F 51.6 °F 66% 30.09 in 10.0 mi Calm Calm - N/A   Clear
9:55 AM 70.0 °F 53.1 °F 55% 30.09 in 10.0 mi North 5.8 mph - N/A   Clear
10:55 AM 75.4 °F 51.6 °F 43% 30.10 in 10.0 mi NNW 9.2 mph - N/A   Clear
11:55 AM 79.0 °F 50.7 °F 37% 30.09 in 10.0 mi NNW 8.1 mph - N/A   Clear
12:55 PM 81.3 °F 48.6 °F 32% 30.08 in 10.0 mi Variable 4.6 mph - N/A   Clear
1:55 PM 83.5 °F 49.1 °F 30% 30.06 in 10.0 mi NNE 4.6 mph - N/A   Clear
2:55 PM 83.8 °F 48.0 °F 29% 30.05 in 9.0 mi Variable 3.5 mph - N/A   Clear
3:55 PM 85.1 °F 50.7 °F 30% 30.04 in 10.0 mi Variable 3.5 mph - N/A   Clear
4:55 PM 84.4 °F 48.9 °F 29% 30.04 in 10.0 mi Calm Calm - N/A   Clear
5:55 PM 83.3 °F 49.5 °F 31% 30.05 in 10.0 mi North 4.6 mph - N/A   Clear
6:55 PM 75.9 °F 57.7 °F 53% 30.06 in 10.0 mi Calm Calm - N/A   Clear
7:55 PM 69.6 °F 56.7 °F 63% 30.09 in 10.0 mi Calm Calm - N/A   Clear
8:55 PM 65.5 °F 57.6 °F 76% 30.09 in 10.0 mi South 3.5 mph - N/A   Clear
9:55 PM 64.0 °F 57.2 °F 78% 30.10 in 10.0 mi Calm Calm - N/A   Clear
10:55 PM 64.0 °F 55.4 °F 73% 30.11 in 10.0 mi South 5.8 mph - N/A   Clear
11:55 PM 63.3 °F 56.1 °F 77% 30.12 in 10.0 mi South 4.6 mph - N/A   Clear